| time (UTC) | temp F | wind direction | speed MPH | gust MPH | rain 1hr in | rain 24hr in | rain mn in | humidity % | barometer mb |
| 20260509043533 | 71 | 208 | 2.0 | 7.0 | 0.00 | 0.11 | 0.11 | 77 | 1009.5 |
| 20260509043039 | 71 | 228 | 3.0 | 7.0 | 0.00 | 0.11 | 0.11 | 77 | 1009.5 |
| 20260509042533 | 72 | 195 | 0.0 | 6.0 | 0.00 | 0.11 | 0.11 | 77 | 1009.9 |
| 20260509042032 | 72 | 360 | 1.0 | 6.0 | 0.00 | 0.11 | 0.11 | 77 | 1009.9 |
| 20260509041538 | 72 | 360 | 1.0 | 8.0 | 0.00 | 0.11 | 0.11 | 76 | 1009.9 |
| 20260509041033 | 72 | 360 | 2.0 | 8.0 | 0.00 | 0.11 | 0.11 | 76 | 1009.8 |
| 20260509040532 | 72 | 360 | 3.0 | 5.0 | 0.00 | 0.11 | 0.11 | 76 | 1009.6 |
| 20260509040044 | 72 | 360 | 1.0 | 5.0 | 0.00 | 0.11 | 0.11 | 76 | 1009.9 |
| 20260509035534 | 72 | 360 | 1.0 | 5.0 | 0.00 | 0.11 | 0.11 | 76 | 1010.1 |
| 20260509035032 | 72 | 0 | 1.0 | 4.0 | 0.00 | 0.11 | 0.11 | 77 | 1010.0 |
| 20260509034540 | 72 | 360 | 0.0 | 3.0 | 0.00 | 0.11 | 0.11 | 76 | 1010.4 |
| 20260509034032 | 72 | 360 | 1.0 | 3.0 | 0.00 | 0.11 | 0.11 | 76 | 1010.9 |
| 20260509033530 | 72 | 360 | 0.0 | 2.0 | 0.00 | 0.11 | 0.11 | 76 | 1010.8 |
| 20260509033043 | 72 | 360 | 0.0 | 2.0 | 0.00 | 0.11 | 0.11 | 76 | 1010.5 |
| 20260509032530 | 72 | 0 | 0.0 | 3.0 | 0.00 | 0.11 | 0.11 | 76 | 1010.2 |
| 20260509032032 | 72 | 0 | 0.0 | 3.0 | 0.00 | 0.11 | 0.11 | 76 | 1010.1 |
| 20260509031554 | 72 | 360 | 0.0 | 3.0 | 0.00 | 0.11 | 0.11 | 76 | 1010.1 |
| 20260509031031 | 72 | 0 | 0.0 | 2.0 | 0.00 | 0.11 | 0.11 | 76 | 1010.0 |
| 20260509030532 | 72 | 360 | 0.0 | 3.0 | 0.00 | 0.11 | 0.11 | 76 | 1010.0 |
| 20260509030038 | 72 | 0 | 0.0 | 3.0 | 0.00 | 0.11 | 0.11 | 76 | 1010.1 |
| 20260509025529 | 72 | 360 | 0.0 | 6.0 | 0.00 | 0.11 | 0.11 | 76 | 1009.8 |
| 20260509025028 | 72 | 0 | 1.0 | 6.0 | 0.00 | 0.11 | 0.11 | 76 | 1009.6 |
| 20260509024538 | 72 | 360 | 0.0 | 5.0 | 0.00 | 0.11 | 0.11 | 76 | 1009.4 |
| 20260509024032 | 72 | 360 | 1.0 | 5.0 | 0.00 | 0.11 | 0.11 | 76 | 1009.3 |
| 20260509023532 | 72 | 360 | 2.0 | 8.0 | 0.00 | 0.11 | 0.11 | 76 | 1009.1 |
| 20260509023037 | 72 | 360 | 2.0 | 8.0 | 0.00 | 0.11 | 0.11 | 76 | 1009.0 |
| 20260509022532 | 72 | 360 | 2.0 | 6.0 | 0.00 | 0.11 | 0.11 | 76 | 1009.0 |
| 20260509022029 | 72 | 360 | 2.0 | 8.0 | 0.00 | 0.11 | 0.11 | 76 | 1008.9 |
| 20260509021542 | 72 | 360 | 2.0 | 9.0 | 0.00 | 0.11 | 0.11 | 76 | 1008.8 |
| 20260509021030 | 72 | 360 | 3.0 | 9.0 | 0.00 | 0.11 | 0.11 | 76 | 1008.8 |
| 20260509020527 | 72 | 360 | 1.0 | 6.0 | 0.00 | 0.11 | 0.11 | 76 | 1008.8 |
| 20260509020044 | 72 | 360 | 1.0 | 6.0 | 0.00 | 0.11 | 0.11 | 75 | 1008.8 |
| 20260509015531 | 72 | 0 | 1.0 | 6.0 | 0.00 | 0.11 | 0.11 | 75 | 1008.7 |
| 20260509015030 | 72 | 360 | 2.0 | 6.0 | 0.00 | 0.11 | 0.11 | 75 | 1008.8 |
| 20260509014542 | 72 | 360 | 2.0 | 5.0 | 0.00 | 0.11 | 0.11 | 75 | 1008.7 |
| 20260509014028 | 72 | 360 | 1.0 | 5.0 | 0.00 | 0.11 | 0.11 | 74 | 1008.6 |
| 20260509013530 | 73 | 360 | 1.0 | 5.0 | 0.00 | 0.11 | 0.11 | 74 | 1008.7 |
| 20260509013038 | 73 | 360 | 1.0 | 6.0 | 0.00 | 0.11 | 0.11 | 74 | 1008.8 |
| 20260509012529 | 73 | 360 | 1.0 | 6.0 | 0.00 | 0.11 | 0.11 | 73 | 1008.7 |
| 20260509012029 | 73 | 360 | 1.0 | 6.0 | 0.00 | 0.11 | 0.11 | 73 | 1008.7 |
| 20260509011537 | 73 | 0 | 1.0 | 5.0 | 0.00 | 0.11 | 0.11 | 73 | 1008.8 |
| 20260509011031 | 73 | 360 | 1.0 | 5.0 | 0.00 | 0.11 | 0.11 | 73 | 1008.8 |
| 20260509010528 | 73 | 0 | 1.0 | 8.0 | 0.00 | 0.11 | 0.11 | 72 | 1008.8 |
| 20260509010043 | 73 | 360 | 1.0 | 8.0 | 0.00 | 0.11 | 0.11 | 72 | 1008.7 |
| 20260509005530 | 73 | 360 | 2.0 | 12.0 | 0.00 | 0.11 | 0.11 | 72 | 1008.6 |
| 20260509005028 | 74 | 360 | 3.0 | 12.0 | 0.00 | 0.11 | 0.11 | 71 | 1008.5 |
| 20260509004538 | 74 | 360 | 3.0 | 12.0 | 0.00 | 0.11 | 0.11 | 71 | 1008.3 |
| 20260509004028 | 74 | 360 | 2.0 | 9.0 | 0.00 | 0.11 | 0.11 | 71 | 1008.2 |
| 20260509003530 | 74 | 360 | 2.0 | 10.0 | 0.00 | 0.11 | 0.11 | 70 | 1008.0 |
| 20260509003045 | 74 | 360 | 4.0 | 10.0 | 0.00 | 0.11 | 0.11 | 70 | 1007.9 |
| 20260509002528 | 74 | 0 | 1.0 | 5.0 | 0.00 | 0.11 | 0.11 | 70 | 1008.0 |
| 20260509002029 | 74 | 360 | 1.0 | 10.0 | 0.00 | 0.11 | 0.11 | 70 | 1008.1 |
| 20260509001539 | 74 | 360 | 2.0 | 10.0 | 0.00 | 0.11 | 0.11 | 70 | 1008.0 |
| 20260509001029 | 74 | 360 | 3.0 | 10.0 | 0.00 | 0.11 | 0.11 | 69 | 1008.0 |
| 20260509000529 | 75 | 360 | 3.0 | 10.0 | 0.00 | 0.11 | 0.11 | 69 | 1008.1 |
| 20260509000040 | 75 | 360 | 2.0 | 5.0 | 0.00 | 0.11 | 0.11 | 69 | 1008.3 |
| 20260508235531 | 75 | 360 | 1.0 | 5.0 | 0.00 | 0.11 | 0.11 | 69 | 1008.2 |
| 20260508235027 | 75 | 360 | 2.0 | 9.0 | 0.00 | 0.11 | 0.11 | 69 | 1008.5 |
| 20260508234538 | 75 | 360 | 3.0 | 9.0 | 0.00 | 0.11 | 0.11 | 69 | 1008.6 |
| 20260508234030 | 75 | 360 | 2.0 | 9.0 | 0.00 | 0.11 | 0.11 | 68 | 1008.6 |
| 20260508233528 | 75 | 188 | 3.0 | 9.0 | 0.00 | 0.11 | 0.11 | 68 | 1008.7 |
| 20260508233055 | 75 | 138 | 3.0 | 7.0 | 0.00 | 0.11 | 0.11 | 68 | 1008.6 |
| 20260508232528 | 75 | 176 | 2.0 | 7.0 | 0.00 | 0.11 | 0.11 | 68 | 1008.7 |
| 20260508232030 | 75 | 167 | 2.0 | 8.0 | 0.00 | 0.11 | 0.11 | 67 | 1008.9 |
| 20260508231540 | 75 | 196 | 3.0 | 10.0 | 0.00 | 0.11 | 0.11 | 67 | 1008.8 |
| 20260508231029 | 75 | 175 | 2.0 | 10.0 | 0.00 | 0.11 | 0.11 | 67 | 1008.8 |
| 20260508230529 | 75 | 0 | 2.0 | 10.0 | 0.00 | 0.11 | 0.11 | 67 | 1008.9 |
| 20260508230100 | 76 | 360 | 4.0 | 10.0 | 0.00 | 0.11 | 0.11 | 67 | 1008.9 |
| 20260508225531 | 76 | 360 | 4.0 | 10.0 | 0.00 | 0.11 | 0.11 | 67 | 1008.9 |
| 20260508225028 | 76 | 360 | 4.0 | 10.0 | 0.00 | 0.11 | 0.11 | 67 | 1008.8 |
| 20260508224546 | 76 | 360 | 4.0 | 10.0 | 0.00 | 0.11 | 0.11 | 67 | 1008.9 |
| 20260508224028 | 76 | 360 | 3.0 | 10.0 | 0.00 | 0.11 | 0.11 | 66 | 1008.9 |
| 20260508223530 | 76 | 360 | 3.0 | 12.0 | 0.00 | 0.11 | 0.11 | 65 | 1008.8 |
| 20260508223042 | 77 | 360 | 3.0 | 12.0 | 0.00 | 0.11 | 0.11 | 65 | 1008.8 |
| 20260508222527 | 77 | 360 | 4.0 | 12.0 | 0.00 | 0.11 | 0.11 | 65 | 1008.8 |
| 20260508222028 | 78 | 222 | 2.0 | 9.0 | 0.00 | 0.11 | 0.11 | 64 | 1008.8 |
| 20260508221542 | 78 | 360 | 3.0 | 9.0 | 0.00 | 0.11 | 0.11 | 64 | 1008.6 |
| 20260508221031 | 78 | 360 | 3.0 | 9.0 | 0.00 | 0.11 | 0.11 | 64 | 1008.5 |
| 20260508220529 | 78 | 360 | 2.0 | 11.0 | 0.00 | 0.11 | 0.11 | 64 | 1008.6 |
| 20260508220110 | 78 | 360 | 3.0 | 11.0 | 0.00 | 0.11 | 0.11 | 64 | 1008.6 |
| 20260508215528 | 78 | 360 | 3.0 | 9.0 | 0.00 | 0.11 | 0.11 | 64 | 1008.5 |
| 20260508215028 | 78 | 360 | 2.0 | 9.0 | 0.00 | 0.11 | 0.11 | 64 | 1008.5 |
| 20260508214538 | 78 | 360 | 3.0 | 11.0 | 0.00 | 0.11 | 0.11 | 63 | 1008.5 |
| 20260508214030 | 78 | 169 | 4.0 | 11.0 | 0.00 | 0.11 | 0.11 | 64 | 1008.6 |
| 20260508213528 | 78 | 360 | 4.0 | 11.0 | 0.00 | 0.11 | 0.11 | 63 | 1008.6 |
| 20260508213038 | 78 | 360 | 4.0 | 10.0 | 0.00 | 0.11 | 0.11 | 62 | 1008.6 |
| 20260508212528 | 78 | 159 | 2.0 | 10.0 | 0.00 | 0.11 | 0.11 | 62 | 1008.7 |
| 20260508212027 | 78 | 139 | 3.0 | 9.0 | 0.00 | 0.11 | 0.11 | 63 | 1008.7 |
| 20260508211546 | 78 | 360 | 1.0 | 9.0 | 0.00 | 0.11 | 0.11 | 65 | 1008.8 |
| 20260508211028 | 77 | 360 | 3.0 | 8.0 | 0.00 | 0.11 | 0.11 | 64 | 1008.8 |
| 20260508210528 | 76 | 360 | 3.0 | 9.0 | 0.00 | 0.11 | 0.11 | 65 | 1009.0 |
| 20260508210041 | 75 | 360 | 3.0 | 9.0 | 0.00 | 0.11 | 0.11 | 66 | 1009.3 |
| 20260508205531 | 75 | 360 | 2.0 | 10.0 | 0.00 | 0.11 | 0.11 | 67 | 1009.6 |
| 20260508205028 | 75 | 360 | 3.0 | 12.0 | 0.00 | 0.11 | 0.11 | 66 | 1009.8 |
| 20260508204543 | 75 | 360 | 3.0 | 12.0 | 0.00 | 0.11 | 0.11 | 66 | 1009.9 |
| 20260508204034 | 75 | 238 | 4.0 | 11.0 | 0.00 | 0.11 | 0.11 | 66 | 1010.1 |
| 20260508203533 | 75 | 360 | 4.0 | 10.0 | 0.00 | 0.11 | 0.11 | 65 | 1010.3 |
| 20260508203040 | 76 | 105 | 4.0 | 10.0 | 0.00 | 0.11 | 0.11 | 64 | 1010.4 |
| 20260508202532 | 76 | 360 | 4.0 | 10.0 | 0.00 | 0.11 | 0.11 | 64 | 1010.4 |
| 20260508202030 | 76 | 360 | 2.0 | 8.0 | 0.00 | 0.11 | 0.11 | 64 | 1010.4 |
| 20260508201543 | 76 | 195 | 3.0 | 9.0 | 0.00 | 0.11 | 0.11 | 64 | 1010.4 |
| 20260508201033 | 76 | 177 | 2.0 | 9.0 | 0.00 | 0.11 | 0.11 | 64 | 1010.4 |
| 20260508200533 | 77 | 166 | 3.0 | 8.0 | 0.00 | 0.11 | 0.11 | 63 | 1010.4 |
| 20260508200044 | 77 | 0 | 3.0 | 8.0 | 0.00 | 0.11 | 0.11 | 63 | 1010.4 |
| 20260508195532 | 77 | 145 | 2.0 | 8.0 | 0.00 | 0.11 | 0.11 | 63 | 1010.4 |
| 20260508195032 | 77 | 198 | 3.0 | 10.0 | 0.00 | 0.11 | 0.11 | 63 | 1010.6 |
| 20260508194539 | 77 | 115 | 4.0 | 10.0 | 0.00 | 0.11 | 0.11 | 62 | 1010.5 |
| 20260508194033 | 78 | 202 | 3.0 | 10.0 | 0.00 | 0.11 | 0.11 | 62 | 1010.6 |
| 20260508193532 | 78 | 163 | 3.0 | 10.0 | 0.00 | 0.11 | 0.11 | 62 | 1010.5 |
| 20260508193042 | 78 | 232 | 3.0 | 10.0 | 0.00 | 0.11 | 0.11 | 62 | 1010.5 |
| 20260508192532 | 78 | 193 | 3.0 | 10.0 | 0.00 | 0.11 | 0.11 | 61 | 1010.6 |
| 20260508192033 | 78 | 200 | 5.0 | 10.0 | 0.00 | 0.11 | 0.11 | 60 | 1010.7 |
| 20260508191539 | 78 | 207 | 4.0 | 8.0 | 0.00 | 0.11 | 0.11 | 60 | 1010.7 |
| 20260508191033 | 79 | 150 | 4.0 | 8.0 | 0.00 | 0.11 | 0.11 | 60 | 1010.8 |
| 20260508190534 | 79 | 209 | 4.0 | 9.0 | 0.00 | 0.11 | 0.11 | 58 | 1010.9 |
| 20260508190053 | 80 | 131 | 2.0 | 9.0 | 0.00 | 0.11 | 0.11 | 58 | 1010.9 |
| 20260508185534 | 80 | 205 | 3.0 | 9.0 | 0.00 | 0.11 | 0.11 | 57 | 1010.7 |
| 20260508185032 | 80 | 204 | 3.0 | 8.0 | 0.00 | 0.11 | 0.11 | 58 | 1010.7 |
| 20260508184546 | 79 | 207 | 2.0 | 7.0 | 0.00 | 0.11 | 0.11 | 56 | 1010.9 |
| 20260508184031 | 79 | 114 | 3.0 | 6.0 | 0.00 | 0.11 | 0.11 | 57 | 1011.0 |
| 20260508183531 | 79 | 234 | 2.0 | 7.0 | 0.00 | 0.11 | 0.11 | 58 | 1010.9 |
| 20260508183043 | 79 | 148 | 1.0 | 7.0 | 0.00 | 0.11 | 0.11 | 57 | 1011.0 |
| 20260508182533 | 79 | 236 | 2.0 | 8.0 | 0.00 | 0.11 | 0.11 | 58 | 1011.2 |
| 20260508182029 | 79 | 74 | 3.0 | 8.0 | 0.00 | 0.11 | 0.11 | 58 | 1011.4 |
| 20260508181605 | 78 | 0 | 1.0 | 8.0 | 0.00 | 0.11 | 0.11 | 58 | 1011.5 |
| 20260508181030 | 78 | 202 | 3.0 | 7.0 | 0.00 | 0.11 | 0.11 | 57 | 1011.5 |
| 20260508180535 | 78 | 159 | 2.0 | 7.0 | 0.00 | 0.11 | 0.11 | 58 | 1011.7 |
| 20260508180046 | 78 | 304 | 3.0 | 7.0 | 0.00 | 0.11 | 0.11 | 58 | 1011.8 |
| 20260508175532 | 78 | 355 | 3.0 | 7.0 | 0.00 | 0.11 | 0.11 | 57 | 1011.8 |
| 20260508175033 | 78 | 161 | 2.0 | 10.0 | 0.00 | 0.11 | 0.11 | 58 | 1011.8 |
| 20260508174554 | 77 | 101 | 2.0 | 10.0 | 0.00 | 0.11 | 0.11 | 61 | 1011.9 |
| 20260508174032 | 77 | 212 | 1.0 | 5.0 | 0.00 | 0.11 | 0.11 | 60 | 1011.8 |
| 20260508173533 | 76 | 142 | 2.0 | 6.0 | 0.00 | 0.11 | 0.11 | 60 | 1011.9 |
| 20260508173039 | 76 | 196 | 2.0 | 8.0 | 0.00 | 0.11 | 0.11 | 62 | 1011.9 |
| 20260508172529 | 76 | 187 | 3.0 | 9.0 | 0.00 | 0.11 | 0.11 | 61 | 1011.9 |
| 20260508172028 | 75 | 179 | 2.0 | 9.0 | 0.00 | 0.11 | 0.11 | 62 | 1012.1 |
| 20260508171542 | 75 | 185 | 3.0 | 7.0 | 0.00 | 0.11 | 0.11 | 62 | 1012.3 |
| 20260508171029 | 74 | 203 | 2.0 | 10.0 | 0.00 | 0.11 | 0.11 | 62 | 1012.3 |
| 20260508170530 | 74 | 121 | 4.0 | 10.0 | 0.00 | 0.11 | 0.11 | 62 | 1012.6 |
| 20260508170038 | 73 | 187 | 2.0 | 9.0 | 0.00 | 0.11 | 0.11 | 63 | 1012.5 |
| 20260508165528 | 73 | 154 | 5.0 | 9.0 | 0.00 | 0.11 | 0.11 | 63 | 1012.8 |
| 20260508165028 | 72 | 145 | 2.0 | 7.0 | 0.00 | 0.11 | 0.11 | 64 | 1013.0 |
| 20260508164540 | 72 | 163 | 2.0 | 6.0 | 0.00 | 0.11 | 0.11 | 65 | 1013.0 |
| 20260508164030 | 71 | 86 | 2.0 | 7.0 | 0.00 | 0.11 | 0.11 | 66 | 1013.1 |
| 20260508163528 | 71 | 174 | 2.0 | 7.0 | 0.00 | 0.11 | 0.11 | 65 | 1013.2 |
| 20260508163043 | 70 | 117 | 3.0 | 8.0 | 0.00 | 0.11 | 0.11 | 65 | 1013.4 |
| 20260508162528 | 70 | 130 | 2.0 | 8.0 | 0.00 | 0.11 | 0.11 | 66 | 1013.6 |
| 20260508162033 | 70 | 123 | 1.0 | 9.0 | 0.00 | 0.11 | 0.11 | 67 | 1013.5 |
| 20260508161538 | 69 | 198 | 2.0 | 9.0 | 0.00 | 0.11 | 0.11 | 67 | 1013.6 |
| 20260508161029 | 69 | 128 | 2.0 | 8.0 | 0.00 | 0.11 | 0.11 | 66 | 1013.7 |
| 20260508160529 | 69 | 198 | 2.0 | 7.0 | 0.00 | 0.11 | 0.11 | 67 | 1013.8 |
| 20260508160038 | 69 | 211 | 2.0 | 6.0 | 0.00 | 0.11 | 0.11 | 67 | 1013.9 |
| 20260508155532 | 69 | 178 | 2.0 | 7.0 | 0.00 | 0.11 | 0.11 | 67 | 1013.9 |
| 20260508155031 | 69 | 175 | 3.0 | 7.0 | 0.00 | 0.11 | 0.11 | 66 | 1013.8 |
| 20260508154540 | 69 | 0 | 1.0 | 8.0 | 0.00 | 0.11 | 0.11 | 68 | 1014.0 |
| 20260508154031 | 69 | 164 | 3.0 | 8.0 | 0.00 | 0.11 | 0.11 | 67 | 1014.1 |
| 20260508153531 | 68 | 159 | 3.0 | 8.0 | 0.00 | 0.11 | 0.11 | 68 | 1014.0 |
| 20260508153042 | 68 | 192 | 2.0 | 7.0 | 0.00 | 0.11 | 0.11 | 69 | 1014.1 |
| 20260508152528 | 68 | 96 | 3.0 | 7.0 | 0.00 | 0.11 | 0.11 | 68 | 1014.0 |
| 20260508152028 | 68 | 207 | 2.0 | 6.0 | 0.00 | 0.11 | 0.11 | 69 | 1014.1 |
| 20260508151542 | 68 | 175 | 2.0 | 6.0 | 0.00 | 0.11 | 0.11 | 69 | 1014.1 |
| 20260508151031 | 67 | 201 | 2.0 | 6.0 | 0.00 | 0.11 | 0.11 | 69 | 1014.2 |
| 20260508150527 | 67 | 105 | 1.0 | 6.0 | 0.00 | 0.11 | 0.11 | 70 | 1014.2 |
| 20260508150042 | 67 | 223 | 1.0 | 6.0 | 0.00 | 0.11 | 0.11 | 71 | 1014.2 |
| 20260508145528 | 67 | 118 | 2.0 | 6.0 | 0.00 | 0.11 | 0.11 | 71 | 1014.2 |
| 20260508145031 | 67 | 116 | 2.0 | 6.0 | 0.00 | 0.11 | 0.11 | 74 | 1014.3 |
| 20260508144538 | 66 | 0 | 1.0 | 5.0 | 0.00 | 0.11 | 0.11 | 75 | 1014.2 |
| 20260508144028 | 66 | 103 | 1.0 | 8.0 | 0.00 | 0.11 | 0.11 | 76 | 1014.1 |
| 20260508143529 | 65 | 174 | 1.0 | 9.0 | 0.00 | 0.11 | 0.11 | 76 | 1014.3 |
| 20260508143039 | 65 | 155 | 2.0 | 9.0 | 0.00 | 0.11 | 0.11 | 75 | 1014.4 |
| 20260508142530 | 65 | 162 | 3.0 | 9.0 | 0.00 | 0.11 | 0.11 | 77 | 1014.3 |
| 20260508142030 | 64 | 0 | 2.0 | 9.0 | 0.00 | 0.11 | 0.11 | 79 | 1014.5 |
| 20260508141539 | 64 | 140 | 1.0 | 5.0 | 0.00 | 0.11 | 0.11 | 81 | 1014.5 |
| 20260508141030 | 63 | 0 | 0.0 | 8.0 | 0.00 | 0.11 | 0.11 | 82 | 1014.5 |
| 20260508140531 | 63 | 0 | 0.0 | 9.0 | 0.00 | 0.11 | 0.11 | 82 | 1014.6 |
| 20260508140042 | 62 | 0 | 1.0 | 9.0 | 0.00 | 0.11 | 0.11 | 82 | 1014.6 |
| 20260508135530 | 62 | 194 | 1.0 | 9.0 | 0.00 | 0.11 | 0.11 | 84 | 1014.4 |
| 20260508135029 | 62 | 0 | 0.0 | 7.0 | 0.00 | 0.11 | 0.11 | 85 | 1014.4 |
| 20260508134553 | 61 | 0 | 1.0 | 7.0 | 0.00 | 0.11 | 0.11 | 85 | 1014.5 |
| 20260508134030 | 61 | 0 | 0.0 | 7.0 | 0.01 | 0.11 | 0.11 | 86 | 1014.5 |
| 20260508133531 | 61 | 146 | 2.0 | 8.0 | 0.03 | 0.11 | 0.11 | 87 | 1014.4 |
| 20260508133038 | 61 | 155 | 2.0 | 8.0 | 0.05 | 0.11 | 0.11 | 87 | 1014.4 |
| 20260508132532 | 61 | 117 | 0.0 | 5.0 | 0.05 | 0.11 | 0.11 | 88 | 1014.6 |
| 20260508132029 | 60 | 0 | 0.0 | 5.0 | 0.05 | 0.11 | 0.11 | 87 | 1014.5 |
| 20260508131538 | 60 | 0 | 0.0 | 4.0 | 0.05 | 0.11 | 0.11 | 87 | 1014.6 |
| 20260508131028 | 60 | 0 | 0.0 | 5.0 | 0.05 | 0.11 | 0.11 | 88 | 1014.5 |
| 20260508130531 | 60 | 0 | 0.0 | 5.0 | 0.05 | 0.11 | 0.11 | 88 | 1014.4 |
| 20260508130036 | 60 | 0 | 0.0 | 3.0 | 0.05 | 0.11 | 0.11 | 88 | 1014.4 |
| 20260508125528 | 60 | 192 | 0.0 | 1.0 | 0.05 | 0.11 | 0.11 | 88 | 1014.7 |
| 20260508125029 | 60 | 0 | 0.0 | 1.0 | 0.05 | 0.11 | 0.11 | 88 | 1015.0 |
| 20260508124538 | 60 | 0 | 0.0 | 1.0 | 0.05 | 0.11 | 0.11 | 87 | 1014.7 |
| 20260508124027 | 60 | 192 | 0.0 | 1.0 | 0.04 | 0.10 | 0.10 | 88 | 1014.6 |
| 20260508123528 | 60 | 0 | 0.0 | 1.0 | 0.02 | 0.08 | 0.08 | 88 | 1014.6 |
| 20260508123040 | 60 | 0 | 0.0 | 1.0 | 0.00 | 0.06 | 0.06 | 88 | 1015.1 |
| 20260508122532 | 60 | 0 | 0.0 | 1.0 | 0.00 | 0.06 | 0.06 | 88 | 1015.0 |
| 20260508122028 | 60 | 0 | 0.0 | 2.0 | 0.00 | 0.06 | 0.06 | 88 | 1014.6 |
| 20260508121543 | 60 | 0 | 0.0 | 4.0 | 0.00 | 0.06 | 0.06 | 88 | 1014.7 |
| 20260508121029 | 60 | 0 | 0.0 | 4.0 | 0.00 | 0.06 | 0.06 | 88 | 1014.6 |
| 20260508120528 | 60 | 207 | 1.0 | 4.0 | 0.00 | 0.06 | 0.06 | 88 | 1014.6 |
| 20260508120043 | 60 | 206 | 1.0 | 4.0 | 0.00 | 0.06 | 0.06 | 88 | 1014.5 |
| 20260508115531 | 60 | 148 | 0.0 | 2.0 | 0.00 | 0.06 | 0.06 | 88 | 1014.7 |
| 20260508115029 | 60 | 192 | 0.0 | 2.0 | 0.00 | 0.06 | 0.06 | 88 | 1014.9 |
| 20260508114547 | 60 | 0 | 0.0 | 2.0 | 0.00 | 0.06 | 0.06 | 88 | 1015.1 |
| 20260508114029 | 60 | 159 | 0.0 | 2.0 | 0.00 | 0.06 | 0.06 | 88 | 1014.5 |
| 20260508113530 | 60 | 172 | 0.0 | 2.0 | 0.00 | 0.06 | 0.06 | 88 | 1014.6 |
| 20260508113040 | 60 | 0 | 0.0 | 2.0 | 0.00 | 0.06 | 0.06 | 88 | 1014.7 |
| 20260508112531 | 60 | 0 | 0.0 | 1.0 | 0.00 | 0.06 | 0.06 | 88 | 1014.8 |
| 20260508112030 | 60 | 0 | 0.0 | 3.0 | 0.00 | 0.06 | 0.06 | 88 | 1014.6 |
| 20260508111544 | 60 | 0 | 0.0 | 3.0 | 0.00 | 0.06 | 0.06 | 88 | 1014.2 |
| 20260508111028 | 60 | 0 | 0.0 | 3.0 | 0.00 | 0.06 | 0.06 | 88 | 1014.1 |
| 20260508110528 | 61 | 14 | 0.0 | 3.0 | 0.00 | 0.06 | 0.06 | 88 | 1014.5 |
| 20260508110036 | 60 | 0 | 0.0 | 4.0 | 0.00 | 0.06 | 0.06 | 88 | 1014.7 |
| 20260508105528 | 60 | 0 | 1.0 | 4.0 | 0.00 | 0.06 | 0.06 | 88 | 1015.4 |
| 20260508105027 | 60 | 288 | 1.0 | 4.0 | 0.00 | 0.06 | 0.06 | 88 | 1015.3 |
| 20260508104542 | 60 | 360 | 0.0 | 3.0 | 0.00 | 0.06 | 0.06 | 88 | 1014.6 |
| 20260508104030 | 60 | 0 | 0.0 | 4.0 | 0.00 | 0.06 | 0.06 | 87 | 1014.8 |
| 20260508103531 | 60 | 0 | 1.0 | 4.0 | 0.00 | 0.06 | 0.06 | 87 | 1014.9 |
| 20260508103050 | 60 | 293 | 1.0 | 3.0 | 0.00 | 0.06 | 0.06 | 87 | 1014.7 |
| 20260508102530 | 60 | 0 | 0.0 | 2.0 | 0.00 | 0.06 | 0.06 | 87 | 1014.0 |
| 20260508102032 | 60 | 0 | 0.0 | 4.0 | 0.00 | 0.06 | 0.06 | 87 | 1013.9 |
| 20260508101537 | 61 | 0 | 1.0 | 4.0 | 0.00 | 0.06 | 0.06 | 87 | 1014.1 |
| 20260508101031 | 61 | 0 | 0.0 | 2.0 | 0.00 | 0.06 | 0.06 | 87 | 1013.9 |
| 20260508100528 | 61 | 0 | 0.0 | 2.0 | 0.00 | 0.06 | 0.06 | 87 | 1013.7 |
| 20260508100036 | 61 | 0 | 0.0 | 0.0 | 0.00 | 0.06 | 0.06 | 86 | 1013.6 |
| 20260508095530 | 61 | 0 | 0.0 | 0.0 | 0.01 | 0.06 | 0.06 | 86 | 1013.6 |
| 20260508095032 | 61 | 0 | 0.0 | 0.0 | 0.02 | 0.06 | 0.06 | 86 | 1013.6 |
| 20260508094604 | 61 | 0 | 0.0 | 0.0 | 0.03 | 0.06 | 0.06 | 86 | 1013.7 |
| 20260508094029 | 61 | 0 | 0.0 | 0.0 | 0.03 | 0.06 | 0.06 | 86 | 1013.7 |
| 20260508093531 | 61 | 0 | 0.0 | 0.0 | 0.03 | 0.06 | 0.06 | 86 | 1013.8 |
| 20260508093039 | 61 | 0 | 0.0 | 1.0 | 0.03 | 0.06 | 0.06 | 86 | 1013.9 |
| 20260508092531 | 61 | 0 | 0.0 | 2.0 | 0.04 | 0.06 | 0.06 | 86 | 1014.0 |
| 20260508092031 | 61 | 0 | 0.0 | 2.0 | 0.04 | 0.06 | 0.06 | 85 | 1014.0 |
| 20260508091541 | 61 | 0 | 0.0 | 1.0 | 0.04 | 0.06 | 0.06 | 85 | 1013.8 |
| 20260508091035 | 61 | 0 | 0.0 | 1.0 | 0.04 | 0.06 | 0.06 | 84 | 1014.1 |
| 20260508090528 | 61 | 0 | 0.0 | 2.0 | 0.05 | 0.06 | 0.06 | 84 | 1014.1 |
| 20260508090038 | 61 | 13 | 0.0 | 2.0 | 0.06 | 0.06 | 0.06 | 84 | 1014.1 |
| 20260508085527 | 61 | 13 | 0.0 | 2.0 | 0.05 | 0.05 | 0.05 | 84 | 1014.0 |
| 20260508085031 | 61 | 0 | 0.0 | 5.0 | 0.04 | 0.04 | 0.04 | 83 | 1014.4 |
| 20260508084541 | 61 | 0 | 0.0 | 5.0 | 0.03 | 0.03 | 0.03 | 83 | 1014.6 |
| 20260508084033 | 62 | 0 | 2.0 | 5.0 | 0.03 | 0.03 | 0.03 | 83 | 1014.6 |
| 20260508083530 | 62 | 0 | 0.0 | 6.0 | 0.03 | 0.03 | 0.03 | 82 | 1013.9 |
| 20260508083041 | 62 | 0 | 2.0 | 6.0 | 0.03 | 0.03 | 0.03 | 81 | 1013.5 |
| 20260508082528 | 62 | 80 | 0.0 | 3.0 | 0.02 | 0.02 | 0.02 | 81 | 1013.9 |
| 20260508082031 | 62 | 0 | 0.0 | 1.0 | 0.02 | 0.02 | 0.02 | 80 | 1014.4 |
| 20260508081558 | 62 | 0 | 0.0 | 2.0 | 0.02 | 0.02 | 0.02 | 79 | 1014.8 |
| 20260508081029 | 62 | 0 | 0.0 | 3.0 | 0.01 | 0.01 | 0.01 | 78 | 1014.8 |
| 20260508080528 | 62 | 0 | 0.0 | 3.0 | 0.01 | 0.01 | 0.01 | 77 | 1014.8 |
| 20260508080050 | 62 | 86 | 1.0 | 3.0 | 0.00 | 0.00 | 0.00 | 77 | 1014.6 |
| 20260508075533 | 62 | 0 | 0.0 | 3.0 | 0.00 | 0.00 | 0.00 | 77 | 1015.2 |
| 20260508075027 | 62 | 0 | 0.0 | 3.0 | 0.00 | 0.00 | 0.00 | 77 | 1015.8 |
| 20260508074539 | 61 | 0 | 0.0 | 0.0 | 0.00 | 0.00 | 0.00 | 77 | 1015.9 |
| 20260508074028 | 61 | 0 | 0.0 | 1.0 | 0.00 | 0.00 | 0.00 | 77 | 1015.4 |
| 20260508073531 | 61 | 0 | 0.0 | 1.0 | 0.00 | 0.00 | 0.00 | 77 | 1015.6 |
| 20260508073042 | 61 | 0 | 0.0 | 1.0 | 0.00 | 0.00 | 0.00 | 77 | 1015.0 |
| 20260508072528 | 61 | 0 | 0.0 | 1.0 | 0.00 | 0.00 | 0.00 | 76 | 1015.0 |
| 20260508072030 | 61 | 0 | 0.0 | 1.0 | 0.00 | 0.00 | 0.00 | 76 | 1014.8 |
| 20260508071544 | 61 | 0 | 0.0 | 0.0 | 0.00 | 0.00 | 0.00 | 76 | 1015.0 |
| 20260508071031 | 61 | 0 | 0.0 | 0.0 | 0.00 | 0.00 | 0.00 | 76 | 1015.0 |
| 20260508070533 | 61 | 0 | 0.0 | 0.0 | 0.00 | 0.00 | 0.00 | 76 | 1015.1 |
| 20260508070042 | 61 | 0 | 0.0 | 1.0 | 0.00 | 0.00 | 0.00 | 76 | 1015.2 |
| 20260508065533 | 61 | 0 | 0.0 | 1.0 | 0.00 | 0.00 | 0.00 | 76 | 1015.2 |
| 20260508065027 | 61 | 0 | 0.0 | 1.0 | 0.00 | 0.00 | 0.00 | 76 | 1015.1 |
| 20260508064539 | 61 | 0 | 0.0 | 0.0 | 0.00 | 0.00 | 0.00 | 76 | 1015.2 |
| 20260508064030 | 61 | 0 | 0.0 | 0.0 | 0.00 | 0.00 | 0.00 | 76 | 1015.5 |
| 20260508063531 | 61 | 0 | 0.0 | 0.0 | 0.00 | 0.00 | 0.00 | 76 | 1015.6 |
| 20260508063051 | 61 | 0 | 0.0 | 0.0 | 0.00 | 0.00 | 0.00 | 76 | 1015.6 |
| 20260508062530 | 61 | 0 | 0.0 | 0.0 | 0.00 | 0.00 | 0.00 | 76 | 1015.6 |
| 20260508062028 | 61 | 0 | 0.0 | 1.0 | 0.00 | 0.00 | 0.00 | 76 | 1015.5 |
| 20260508061543 | 61 | 0 | 0.0 | 1.0 | 0.00 | 0.00 | 0.00 | 76 | 1015.7 |
| 20260508061028 | 61 | 0 | 0.0 | 0.0 | 0.00 | 0.00 | 0.00 | 76 | 1015.7 |
| 20260508060528 | 61 | 0 | 0.0 | 1.0 | 0.00 | 0.00 | 0.00 | 76 | 1015.4 |
| 20260508060038 | 61 | 0 | 0.0 | 1.0 | 0.00 | 0.00 | 0.00 | 76 | 1015.4 |
| 20260508055529 | 61 | 0 | 0.0 | 0.0 | 0.00 | 0.00 | 0.00 | 75 | 1015.3 |
| 20260508055028 | 61 | 0 | 0.0 | 0.0 | 0.00 | 0.00 | 0.00 | 75 | 1015.6 |
| 20260508054543 | 61 | 0 | 0.0 | 0.0 | 0.00 | 0.00 | 0.00 | 75 | 1015.5 |
| 20260508054027 | 62 | 0 | 0.0 | 0.0 | 0.00 | 0.00 | 0.00 | 75 | 1015.5 |
| 20260508053530 | 62 | 0 | 0.0 | 0.0 | 0.00 | 0.00 | 0.00 | 74 | 1015.5 |
| 20260508053043 | 62 | 0 | 0.0 | 0.0 | 0.00 | 0.00 | 0.00 | 74 | 1015.5 |
| 20260508052532 | 62 | 0 | 0.0 | 0.0 | 0.00 | 0.00 | 0.00 | 74 | 1015.5 |
| 20260508052031 | 62 | 0 | 0.0 | 0.0 | 0.00 | 0.00 | 0.00 | 73 | 1015.7 |
| 20260508051539 | 62 | 0 | 0.0 | 0.0 | 0.00 | 0.00 | 0.00 | 73 | 1015.7 |
| 20260508051028 | 62 | 0 | 0.0 | 0.0 | 0.00 | 0.00 | 0.00 | 73 | 1015.7 |
| 20260508050604 | 62 | 0 | 0.0 | 0.0 | 0.00 | 0.00 | 0.00 | 73 | 1015.5 |
| 20260508050038 | 62 | 0 | 0.0 | 0.0 | 0.00 | 0.00 | 0.00 | 72 | 1015.4 |
| 20260508045530 | 62 | 0 | 0.0 | 0.0 | 0.00 | 0.00 | 0.00 | 72 | 1015.5 |
| 20260508045030 | 63 | 0 | 0.0 | 0.0 | 0.00 | 0.00 | 0.00 | 72 | 1015.6 |
| 20260508044537 | 63 | 0 | 0.0 | 0.0 | 0.00 | 0.00 | 0.00 | 72 | 1015.6 |
| 20260508044031 | 63 | 0 | 0.0 | 0.0 | 0.00 | 0.00 | 0.00 | 72 | 1015.6 |